This is the latest recevied weather packets stored in our database for station/object KJ7HSW. If no packets are shown the sender has not sent any weather packets the latest 10 day(s).
| Time | Temp. | Humidity | Pressure | Rain* | Wind** | Luminosity | Snow |
|---|---|---|---|---|---|---|---|
| 1777511132 | 18.89° C | 56% | 1022 hPa | 0 mm | - | 52 W/m² | - |
| 1777510827 | 18.89° C | 56% | 1022.2 hPa | 0 mm | - | 53 W/m² | - |
| 1777510524 | 18.89° C | 56% | 1022 hPa | 0 mm | - | 56 W/m² | - |
| 1777510220 | 19.44° C | 55% | 1022.1 hPa | 0 mm | - | 55 W/m² | - |
| 1777509917 | 19.44° C | 57% | 1022.1 hPa | 0 mm | - | 64 W/m² | - |
| 1777509612 | 19.44° C | 57% | 1022.2 hPa | 0 mm | - | 58 W/m² | - |
| 1777509309 | 19.44° C | 55% | 1022.2 hPa | 0 mm | - | 67 W/m² | - |
| 1777509007 | 20° C | 55% | 1022 hPa | 0 mm | - | 66 W/m² | - |
| 1777508704 | 20° C | 54% | 1021.9 hPa | 0 mm | - | 75 W/m² | - |
| 1777508401 | 20° C | 54% | 1022 hPa | 0 mm | - | 68 W/m² | - |
| 1777508097 | 20° C | 54% | 1021.8 hPa | 0 mm | - | 90 W/m² | - |
| 1777507794 | 20.56° C | 52% | 1022 hPa | 0 mm | - | 81 W/m² | - |
| 1777507491 | 20.56° C | 53% | 1021.9 hPa | 0 mm | - | 92 W/m² | - |
| 1777507188 | 20.56° C | 49% | 1022.2 hPa | 0 mm | - | 105 W/m² | - |
| 1777506886 | 21.11° C | 48% | 1022.2 hPa | 0 mm | - | 143 W/m² | - |
| 1777506583 | 21.67° C | 48% | 1022.1 hPa | 0 mm | - | 423 W/m² | - |
| 1777506278 | 21.11° C | 50% | 1022.2 hPa | 0 mm | - | 442 W/m² | - |
| 1777505975 | 21.11° C | 48% | 1022.2 hPa | 0 mm | - | 455 W/m² | - |
| 1777505670 | 21.11° C | 46% | 1022.4 hPa | 0 mm | - | 471 W/m² | - |
| 1777505368 | 21.67° C | 44% | 1022.2 hPa | 0 mm | - | 483 W/m² | - |
| 1777505064 | 21.67° C | 46% | 1022.4 hPa | 0 mm | - | 495 W/m² | - |
| 1777504762 | 21.67° C | 47% | 1022.3 hPa | 0 mm | - | 508 W/m² | - |
| 1777504459 | 21.67° C | 47% | 1022.4 hPa | 0 mm | - | 520 W/m² | - |
| 1777504155 | 21.67° C | 48% | 1022.6 hPa | 0 mm | - | 542 W/m² | - |
| 1777503850 | 22.22° C | 47% | 1022.5 hPa | 0 mm | - | 555 W/m² | - |
* Rain latest hour (hover to see other rain measurements)
** Current wind speed in m/s (hover to see current wind gust speed)